Location: Clarion
(42.7316°N, 93.7330°W)
Time: 08:50:39
(UTC+00:00)

Cosmos 2242 Rocket - Pass Details

Date: 22 April 2026
Orbit: 612 x 646 km, 82.5° (Epoch: 17 May)

Event Time Altitude Azimuth Distance (km) Brightness Sun altitude
Rises 01:40:07 0° 358° (N) 2,925 7.4 -7.0°
Reaches altitude 10° 01:42:28 10° 5° (N) 2,008 6.4 -7.4°
Maximum altitude 01:46:43 43° 77° (ENE) 879 4.0 -8.1°
Drops below altitude 10° 01:50:53 10° 150° (SSE) 1,975 5.6 -8.8°
Enters shadow 01:51:51 - 153° (SSE) 2,349 6.1 -9.0°
